| time (UTC) | temp C | wind direction | speed KPH | gust KPH | rain 1hr cm | rain 24hr cm | rain mn cm | humidity % | barometer mb |
| 20260906101523 | 21 | 345 | 0.0 | 0.0 | 0.00 | 0.08 | 0.00 | 94 | 1011.7 |
| 20260906101018 | 21 | 345 | 0.0 | 0.0 | 0.00 | 0.08 | 0.00 | 94 | 1011.7 |
| 20260906100521 | 21 | 345 | 0.0 | 3.2 | 0.00 | 0.08 | 0.00 | 94 | 1011.6 |
| 20260906100119 | 21 | 345 | 0.0 | 3.2 | 0.00 | 0.08 | 0.00 | 93 | 1011.7 |
| 20260906095520 | 21 | 345 | 0.0 | 0.0 | 0.00 | 0.08 | 0.00 | 93 | 1011.7 |
| 20260906095018 | 21 | 345 | 0.0 | 0.0 | 0.00 | 0.08 | 0.00 | 93 | 1011.6 |
| 20260906094516 | 21 | 345 | 0.0 | 0.0 | 0.00 | 0.08 | 0.00 | 93 | 1011.6 |
| 20260906094015 | 22 | 345 | 0.0 | 0.0 | 0.00 | 0.08 | 0.00 | 93 | 1011.6 |
| 20260906093517 | 22 | 345 | 0.0 | 0.0 | 0.00 | 0.08 | 0.00 | 93 | 1011.8 |
| 20260906093015 | 22 | 345 | 0.0 | 0.0 | 0.00 | 0.08 | 0.00 | 93 | 1011.7 |
| 20260906092515 | 22 | 345 | 0.0 | 0.0 | 0.00 | 0.08 | 0.00 | 93 | 1011.6 |
| 20260906092017 | 22 | 345 | 0.0 | 0.0 | 0.00 | 0.08 | 0.00 | 93 | 1011.7 |
| 20260906091520 | 22 | 345 | 0.0 | 0.0 | 0.00 | 0.08 | 0.00 | 93 | 1011.7 |
| 20260906091014 | 22 | 345 | 0.0 | 0.0 | 0.00 | 0.08 | 0.00 | 93 | 1011.7 |
| 20260906090517 | 22 | 345 | 0.0 | 1.6 | 0.00 | 0.08 | 0.00 | 93 | 1011.6 |
| 20260906090016 | 22 | 345 | 0.0 | 1.6 | 0.00 | 0.08 | 0.00 | 93 | 1011.6 |
| 20260906085514 | 22 | 313 | 0.0 | 3.2 | 0.00 | 0.08 | 0.00 | 93 | 1011.6 |
| 20260906085013 | 22 | 222 | 0.0 | 3.2 | 0.00 | 0.08 | 0.00 | 93 | 1011.6 |
| 20260906084513 | 22 | 222 | 0.0 | 4.8 | 0.00 | 0.08 | 0.00 | 93 | 1011.5 |
| 20260906084013 | 22 | 213 | 0.0 | 4.8 | 0.00 | 0.08 | 0.00 | 93 | 1011.6 |
| 20260906083513 | 22 | 256 | 0.0 | 3.2 | 0.00 | 0.08 | 0.00 | 93 | 1011.5 |
| 20260906083012 | 22 | 256 | 0.0 | 1.6 | 0.00 | 0.08 | 0.00 | 93 | 1011.6 |
| 20260906082511 | 22 | 157 | 0.0 | 1.6 | 0.00 | 0.08 | 0.00 | 93 | 1011.6 |
| 20260906082011 | 22 | 161 | 0.0 | 1.6 | 0.00 | 0.08 | 0.00 | 93 | 1011.7 |
| 20260906081517 | 22 | 67 | 0.0 | 1.6 | 0.00 | 0.08 | 0.00 | 93 | 1011.7 |
| 20260906081013 | 22 | 67 | 0.0 | 1.6 | 0.00 | 0.08 | 0.00 | 93 | 1011.7 |
| 20260906080511 | 22 | 67 | 0.0 | 1.6 | 0.00 | 0.08 | 0.00 | 93 | 1011.8 |
| 20260906080014 | 22 | 67 | 0.0 | 1.6 | 0.00 | 0.08 | 0.00 | 93 | 1011.7 |
| 20260906075510 | 22 | 67 | 0.0 | 0.0 | 0.00 | 0.08 | 0.00 | 93 | 1011.6 |
| 20260906075013 | 22 | 67 | 0.0 | 0.0 | 0.00 | 0.08 | 0.00 | 93 | 1011.5 |
| 20260906074512 | 22 | 67 | 0.0 | 0.0 | 0.00 | 0.08 | 0.00 | 93 | 1011.5 |
| 20260906074009 | 22 | 67 | 0.0 | 0.0 | 0.00 | 0.08 | 0.00 | 93 | 1011.4 |
| 20260906073508 | 22 | 67 | 0.0 | 0.0 | 0.00 | 0.08 | 0.00 | 93 | 1011.3 |
| 20260906073008 | 22 | 67 | 0.0 | 0.0 | 0.00 | 0.08 | 0.00 | 93 | 1011.3 |
| 20260906072508 | 22 | 67 | 0.0 | 0.0 | 0.00 | 0.08 | 0.00 | 93 | 1011.3 |
| 20260906072008 | 22 | 67 | 0.0 | 0.0 | 0.00 | 0.08 | 0.00 | 93 | 1011.1 |
| 20260906071510 | 22 | 67 | 0.0 | 0.0 | 0.00 | 0.08 | 0.00 | 93 | 1011.1 |
| 20260906071008 | 22 | 67 | 0.0 | 0.0 | 0.00 | 0.08 | 0.00 | 93 | 1011.0 |
| 20260906070510 | 22 | 67 | 0.0 | 0.0 | 0.00 | 0.08 | 0.00 | 93 | 1011.1 |
| 20260906070007 | 22 | 67 | 0.0 | 0.0 | 0.00 | 0.08 | 0.00 | 93 | 1011.1 |
| 20260906065507 | 22 | 67 | 0.0 | 0.0 | 0.00 | 0.08 | 0.00 | 93 | 1011.1 |
| 20260906065007 | 22 | 67 | 0.0 | 0.0 | 0.00 | 0.08 | 0.00 | 93 | 1011.1 |
| 20260906064506 | 22 | 67 | 0.0 | 1.6 | 0.00 | 0.08 | 0.00 | 93 | 1011.1 |
| 20260906064006 | 22 | 67 | 0.0 | 1.6 | 0.00 | 0.08 | 0.00 | 93 | 1011.1 |
| 20260906063509 | 22 | 67 | 0.0 | 1.6 | 0.00 | 0.08 | 0.00 | 93 | 1011.2 |
| 20260906063006 | 22 | 67 | 0.0 | 0.0 | 0.00 | 0.08 | 0.00 | 93 | 1011.2 |
| 20260906062505 | 22 | 67 | 0.0 | 0.0 | 0.00 | 0.08 | 0.00 | 93 | 1011.1 |
| 20260906062010 | 22 | 67 | 0.0 | 0.0 | 0.00 | 0.08 | 0.00 | 93 | 1011.0 |
| 20260906061505 | 22 | 67 | 0.0 | 0.0 | 0.00 | 0.08 | 0.00 | 93 | 1011.1 |
| 20260906061004 | 22 | 67 | 0.0 | 0.0 | 0.00 | 0.08 | 0.00 | 93 | 1011.2 |
| 20260906060504 | 22 | 67 | 0.0 | 0.0 | 0.00 | 0.08 | 0.00 | 93 | 1011.0 |
| 20260906060003 | 22 | 67 | 0.0 | 0.0 | 0.00 | 0.08 | 0.00 | 93 | 1011.2 |
| 20260906055503 | 22 | 67 | 0.0 | 0.0 | 0.00 | 0.08 | 0.00 | 93 | 1011.3 |
| 20260906055002 | 22 | 67 | 0.0 | 0.0 | 0.00 | 0.08 | 0.00 | 93 | 1011.4 |
| 20260906054607 | 22 | 67 | 0.0 | 0.0 | 0.00 | 0.08 | 0.00 | 92 | 1011.4 |
| 20260906054100 | 22 | 67 | 0.0 | 0.0 | 0.00 | 0.08 | 0.00 | 92 | 1011.5 |
| 20260906053559 | 22 | 67 | 0.0 | 0.0 | 0.00 | 0.08 | 0.00 | 92 | 1011.6 |
| 20260906053102 | 22 | 67 | 0.0 | 0.0 | 0.00 | 0.08 | 0.00 | 92 | 1011.7 |
| 20260906052559 | 23 | 67 | 0.0 | 0.0 | 0.00 | 0.08 | 0.00 | 92 | 1011.8 |
| 20260906052059 | 23 | 67 | 0.0 | 0.0 | 0.00 | 0.08 | 0.00 | 92 | 1011.7 |
| 20260906051611 | 23 | 67 | 0.0 | 1.6 | 0.00 | 0.08 | 0.00 | 92 | 1011.7 |
| 20260906051057 | 23 | 67 | 0.0 | 1.6 | 0.00 | 0.08 | 0.00 | 92 | 1011.8 |
| 20260906050556 | 23 | 67 | 0.0 | 1.6 | 0.00 | 0.08 | 0.00 | 92 | 1011.8 |
| 20260906050056 | 23 | 67 | 0.0 | 1.6 | 0.00 | 0.08 | 0.00 | 92 | 1011.9 |
| 20260906045557 | 23 | 67 | 0.0 | 1.6 | 0.00 | 0.08 | 0.00 | 92 | 1011.9 |
| 20260906045058 | 23 | 67 | 0.0 | 0.0 | 0.00 | 0.08 | 0.00 | 92 | 1012.0 |
| 20260906044603 | 23 | 67 | 0.0 | 0.0 | 0.00 | 0.08 | 0.00 | 92 | 1012.1 |
| 20260906044053 | 23 | 67 | 0.0 | 1.6 | 0.00 | 0.08 | 0.00 | 92 | 1012.1 |
| 20260906043553 | 23 | 67 | 0.0 | 0.0 | 0.00 | 0.08 | 0.00 | 92 | 1012.2 |
| 20260906043052 | 23 | 67 | 0.0 | 0.0 | 0.00 | 0.08 | 0.00 | 92 | 1012.3 |
| 20260906042553 | 23 | 67 | 0.0 | 0.0 | 0.00 | 0.08 | 0.00 | 92 | 1012.2 |
| 20260906042052 | 23 | 67 | 0.0 | 0.0 | 0.00 | 0.08 | 0.00 | 92 | 1012.3 |
| 20260906041552 | 23 | 67 | 0.0 | 0.0 | 0.00 | 0.08 | 0.00 | 92 | 1012.4 |
| 20260906041051 | 23 | 67 | 0.0 | 0.0 | 0.00 | 0.08 | 0.00 | 92 | 1012.3 |
| 20260906040549 | 23 | 67 | 0.0 | 0.0 | 0.00 | 0.08 | 0.00 | 92 | 1012.3 |
| 20260906040124 | 23 | 67 | 0.0 | 0.0 | 0.00 | 0.08 | 0.00 | 92 | 1012.3 |
| 20260906035548 | 23 | 67 | 0.0 | 0.0 | 0.00 | 0.08 | 0.08 | 92 | 1012.3 |
| 20260906035048 | 23 | 67 | 0.0 | 0.0 | 0.00 | 0.08 | 0.08 | 92 | 1012.2 |
| 20260906034601 | 23 | 67 | 0.0 | 0.0 | 0.00 | 0.08 | 0.08 | 91 | 1012.2 |
| 20260906034047 | 23 | 67 | 0.0 | 0.0 | 0.00 | 0.08 | 0.08 | 91 | 1012.1 |
| 20260906033549 | 23 | 67 | 0.0 | 0.0 | 0.00 | 0.08 | 0.08 | 91 | 1012.0 |
| 20260906033102 | 23 | 67 | 0.0 | 0.0 | 0.00 | 0.08 | 0.08 | 91 | 1012.1 |
| 20260906032547 | 23 | 67 | 0.0 | 0.0 | 0.00 | 0.08 | 0.08 | 91 | 1012.2 |
| 20260906032047 | 23 | 67 | 0.0 | 0.0 | 0.00 | 0.08 | 0.08 | 91 | 1012.1 |
| 20260906031549 | 23 | 67 | 0.0 | 0.0 | 0.00 | 0.08 | 0.08 | 91 | 1012.0 |
| 20260906031047 | 23 | 67 | 0.0 | 0.0 | 0.00 | 0.08 | 0.08 | 91 | 1012.0 |
| 20260906030548 | 23 | 67 | 0.0 | 0.0 | 0.00 | 0.08 | 0.08 | 91 | 1012.0 |
| 20260906030047 | 23 | 67 | 0.0 | 0.0 | 0.00 | 0.08 | 0.08 | 91 | 1011.9 |
| 20260906025546 | 23 | 67 | 0.0 | 0.0 | 0.00 | 0.08 | 0.08 | 91 | 1011.9 |
| 20260906025048 | 23 | 67 | 0.0 | 0.0 | 0.00 | 0.08 | 0.08 | 90 | 1011.9 |
| 20260906024554 | 24 | 67 | 0.0 | 0.0 | 0.00 | 0.08 | 0.08 | 90 | 1011.7 |
| 20260906024046 | 24 | 67 | 0.0 | 0.0 | 0.00 | 0.08 | 0.08 | 90 | 1011.6 |
| 20260906023546 | 24 | 67 | 0.0 | 0.0 | 0.00 | 0.08 | 0.08 | 90 | 1011.6 |
| 20260906023052 | 24 | 67 | 0.0 | 0.0 | 0.00 | 0.08 | 0.08 | 90 | 1011.5 |
| 20260906022545 | 24 | 67 | 0.0 | 0.0 | 0.00 | 0.08 | 0.08 | 89 | 1011.4 |
| 20260906022046 | 24 | 67 | 0.0 | 0.0 | 0.00 | 0.08 | 0.08 | 89 | 1011.5 |
| 20260906021546 | 24 | 67 | 0.0 | 0.0 | 0.00 | 0.08 | 0.08 | 89 | 1011.5 |
| 20260906021045 | 24 | 67 | 0.0 | 0.0 | 0.00 | 0.08 | 0.08 | 89 | 1011.5 |
| 20260906020545 | 24 | 67 | 0.0 | 0.0 | 0.00 | 0.08 | 0.08 | 89 | 1011.5 |
| 20260906020045 | 24 | 67 | 0.0 | 3.2 | 0.00 | 0.08 | 0.08 | 89 | 1011.4 |
| 20260906015546 | 25 | 67 | 0.0 | 4.8 | 0.00 | 0.08 | 0.08 | 89 | 1011.3 |
| 20260906015045 | 25 | 119 | 0.0 | 4.8 | 0.00 | 0.08 | 0.08 | 88 | 1011.4 |
| 20260906014545 | 25 | 96 | 0.0 | 3.2 | 0.00 | 0.08 | 0.08 | 88 | 1011.5 |
| 20260906014045 | 25 | 94 | 0.0 | 1.6 | 0.00 | 0.08 | 0.08 | 88 | 1011.5 |
| 20260906013544 | 25 | 96 | 0.0 | 0.0 | 0.00 | 0.08 | 0.08 | 88 | 1011.5 |
| 20260906013044 | 25 | 96 | 0.0 | 1.6 | 0.00 | 0.08 | 0.08 | 87 | 1011.4 |
| 20260906012544 | 25 | 96 | 0.0 | 4.8 | 0.00 | 0.08 | 0.08 | 87 | 1011.3 |
| 20260906012043 | 25 | 95 | 0.0 | 4.8 | 0.00 | 0.08 | 0.08 | 87 | 1011.2 |
| 20260906011544 | 25 | 236 | 0.0 | 1.6 | 0.00 | 0.08 | 0.08 | 87 | 1011.0 |
| 20260906011044 | 25 | 240 | 0.0 | 4.8 | 0.00 | 0.08 | 0.08 | 87 | 1011.0 |
| 20260906010545 | 25 | 240 | 0.0 | 4.8 | 0.00 | 0.08 | 0.08 | 86 | 1010.8 |
| 20260906010044 | 25 | 235 | 0.0 | 4.8 | 0.00 | 0.08 | 0.08 | 86 | 1010.9 |
| 20260906005547 | 25 | 262 | 0.0 | 3.2 | 0.00 | 0.08 | 0.08 | 87 | 1011.1 |
| 20260906005044 | 25 | 264 | 1.6 | 3.2 | 0.00 | 0.08 | 0.08 | 86 | 1011.0 |
| 20260906004543 | 25 | 263 | 0.0 | 1.6 | 0.00 | 0.08 | 0.08 | 86 | 1011.0 |
| 20260906004042 | 25 | 263 | 0.0 | 1.6 | 0.00 | 0.08 | 0.08 | 86 | 1011.1 |
| 20260906003545 | 25 | 263 | 0.0 | 0.0 | 0.00 | 0.08 | 0.08 | 85 | 1011.1 |
| 20260906003042 | 25 | 264 | 0.0 | 0.0 | 0.00 | 0.08 | 0.08 | 85 | 1011.0 |
| 20260906002545 | 26 | 264 | 0.0 | 0.0 | 0.00 | 0.08 | 0.08 | 85 | 1011.1 |
| 20260906002043 | 26 | 264 | 0.0 | 0.0 | 0.00 | 0.08 | 0.08 | 84 | 1011.0 |
| 20260906001542 | 26 | 264 | 0.0 | 1.6 | 0.00 | 0.08 | 0.08 | 84 | 1011.0 |
| 20260906001043 | 26 | 264 | 0.0 | 3.2 | 0.00 | 0.08 | 0.08 | 84 | 1010.9 |
| 20260906000541 | 26 | 207 | 0.0 | 0.0 | 0.00 | 0.08 | 0.08 | 83 | 1011.0 |
| 20260906000041 | 26 | 207 | 0.0 | 0.0 | 0.00 | 0.08 | 0.08 | 83 | 1011.0 |
| 20260905235543 | 26 | 207 | 0.0 | 3.2 | 0.00 | 0.08 | 0.08 | 83 | 1010.9 |
| 20260905235040 | 26 | 207 | 0.0 | 3.2 | 0.00 | 0.08 | 0.08 | 82 | 1010.8 |
| 20260905234540 | 26 | 178 | 0.0 | 3.2 | 0.00 | 0.08 | 0.08 | 82 | 1010.8 |
| 20260905234039 | 27 | 207 | 0.0 | 1.6 | 0.00 | 0.08 | 0.08 | 82 | 1010.9 |
| 20260905233539 | 27 | 207 | 0.0 | 3.2 | 0.00 | 0.08 | 0.08 | 82 | 1010.8 |
| 20260905233044 | 27 | 219 | 0.0 | 4.8 | 0.00 | 0.08 | 0.08 | 81 | 1010.8 |
| 20260905232539 | 27 | 343 | 0.0 | 3.2 | 0.00 | 0.08 | 0.08 | 81 | 1010.7 |
| 20260905232039 | 27 | 5 | 0.0 | 3.2 | 0.00 | 0.08 | 0.08 | 81 | 1010.7 |
| 20260905231539 | 27 | 219 | 0.0 | 3.2 | 0.00 | 0.08 | 0.08 | 80 | 1010.7 |
| 20260905231038 | 27 | 222 | 0.0 | 8.0 | 0.00 | 0.08 | 0.08 | 81 | 1010.8 |
| 20260905230537 | 27 | 234 | 3.2 | 8.0 | 0.00 | 0.08 | 0.08 | 79 | 1010.7 |
| 20260905230038 | 28 | 280 | 3.2 | 6.4 | 0.00 | 0.08 | 0.08 | 81 | 1010.7 |
| 20260905225537 | 28 | 281 | 1.6 | 4.8 | 0.00 | 0.08 | 0.08 | 82 | 1010.7 |
| 20260905225037 | 28 | 259 | 0.0 | 4.8 | 0.00 | 0.08 | 0.08 | 82 | 1010.7 |
| 20260905224607 | 28 | 225 | 0.0 | 3.2 | 0.00 | 0.08 | 0.08 | 81 | 1010.5 |
| 20260905224036 | 28 | 220 | 0.0 | 8.0 | 0.00 | 0.08 | 0.08 | 82 | 1010.5 |
| 20260905223536 | 28 | 242 | 3.2 | 8.0 | 0.00 | 0.08 | 0.08 | 81 | 1010.4 |
| 20260905223043 | 28 | 190 | 0.0 | 4.8 | 0.00 | 0.08 | 0.08 | 80 | 1010.4 |
| 20260905222536 | 28 | 219 | 0.0 | 4.8 | 0.00 | 0.08 | 0.08 | 80 | 1010.3 |
| 20260905222039 | 29 | 203 | 1.6 | 4.8 | 0.00 | 0.08 | 0.08 | 80 | 1010.4 |
| 20260905221536 | 29 | 238 | 1.6 | 9.7 | 0.00 | 0.08 | 0.08 | 80 | 1010.3 |
| 20260905221035 | 29 | 238 | 1.6 | 9.7 | 0.00 | 0.08 | 0.08 | 81 | 1010.4 |
| 20260905220534 | 29 | 240 | 1.6 | 6.4 | 0.00 | 0.08 | 0.08 | 81 | 1010.4 |
| 20260905220034 | 29 | 239 | 1.6 | 6.4 | 0.00 | 0.08 | 0.08 | 81 | 1010.5 |
| 20260905215533 | 30 | 224 | 0.0 | 6.4 | 0.00 | 0.08 | 0.08 | 81 | 1010.6 |
| 20260905215032 | 30 | 285 | 1.6 | 9.7 | 0.00 | 0.08 | 0.08 | 81 | 1010.7 |
| 20260905214536 | 30 | 263 | 1.6 | 9.7 | 0.00 | 0.08 | 0.08 | 81 | 1010.7 |
| 20260905214032 | 30 | 238 | 3.2 | 6.4 | 0.00 | 0.08 | 0.08 | 81 | 1010.9 |
| 20260905213532 | 30 | 234 | 1.6 | 6.4 | 0.00 | 0.08 | 0.08 | 81 | 1010.9 |
| 20260905213033 | 30 | 264 | 1.6 | 6.4 | 0.00 | 0.08 | 0.08 | 80 | 1010.8 |
| 20260905212536 | 30 | 221 | 3.2 | 6.4 | 0.00 | 0.08 | 0.08 | 80 | 1010.9 |
| 20260905212031 | 30 | 283 | 0.0 | 6.4 | 0.00 | 0.08 | 0.08 | 81 | 1010.9 |
| 20260905211542 | 30 | 261 | 0.0 | 4.8 | 0.00 | 0.08 | 0.08 | 80 | 1010.8 |
| 20260905211032 | 30 | 255 | 1.6 | 4.8 | 0.00 | 0.08 | 0.08 | 78 | 1010.7 |
| 20260905210533 | 30 | 246 | 0.0 | 4.8 | 0.00 | 0.08 | 0.08 | 78 | 1010.8 |
| 20260905210040 | 30 | 243 | 1.6 | 4.8 | 0.00 | 0.08 | 0.08 | 77 | 1010.8 |
| 20260905205530 | 31 | 138 | 0.0 | 3.2 | 0.00 | 0.08 | 0.08 | 77 | 1010.9 |
| 20260905205030 | 31 | 100 | 0.0 | 4.8 | 0.00 | 0.08 | 0.08 | 76 | 1010.9 |
| 20260905204530 | 31 | 206 | 0.0 | 4.8 | 0.00 | 0.08 | 0.08 | 78 | 1011.0 |
| 20260905204029 | 31 | 232 | 0.0 | 3.2 | 0.00 | 0.08 | 0.08 | 78 | 1011.1 |
| 20260905203528 | 31 | 232 | 0.0 | 3.2 | 0.00 | 0.08 | 0.08 | 77 | 1011.0 |
| 20260905203027 | 31 | 75 | 0.0 | 3.2 | 0.00 | 0.08 | 0.08 | 78 | 1011.2 |
| 20260905202527 | 30 | 76 | 0.0 | 4.8 | 0.00 | 0.08 | 0.08 | 80 | 1011.4 |
| 20260905202026 | 30 | 110 | 0.0 | 4.8 | 0.00 | 0.08 | 0.08 | 83 | 1011.4 |
| 20260905201526 | 29 | 234 | 1.6 | 4.8 | 0.00 | 0.08 | 0.08 | 85 | 1011.4 |
| 20260905201025 | 28 | 273 | 0.0 | 3.2 | 0.00 | 0.08 | 0.08 | 86 | 1011.5 |
| 20260905200527 | 28 | 275 | 0.0 | 4.8 | 0.00 | 0.08 | 0.08 | 87 | 1011.4 |
| 20260905200027 | 27 | 275 | 1.6 | 4.8 | 0.00 | 0.08 | 0.08 | 88 | 1011.6 |
| 20260905195523 | 27 | 215 | 0.0 | 4.8 | 0.00 | 0.08 | 0.08 | 89 | 1011.6 |
| 20260905195028 | 27 | 139 | 0.0 | 4.8 | 0.00 | 0.08 | 0.08 | 89 | 1011.6 |
| 20260905194523 | 26 | 24 | 0.0 | 1.6 | 0.00 | 0.08 | 0.08 | 91 | 1011.7 |
| 20260905194022 | 26 | 9 | 0.0 | 1.6 | 0.00 | 0.08 | 0.08 | 92 | 1011.7 |
| 20260905193522 | 26 | 9 | 0.0 | 1.6 | 0.00 | 0.08 | 0.08 | 92 | 1011.9 |
| 20260905193021 | 26 | 9 | 0.0 | 1.6 | 0.00 | 0.08 | 0.08 | 92 | 1012.0 |
| 20260905192521 | 25 | 10 | 0.0 | 1.6 | 0.00 | 0.08 | 0.08 | 91 | 1012.0 |
| 20260905192021 | 25 | 10 | 0.0 | 1.6 | 0.00 | 0.08 | 0.08 | 91 | 1012.0 |
| 20260905191520 | 25 | 9 | 0.0 | 0.0 | 0.00 | 0.08 | 0.08 | 92 | 1012.1 |
| 20260905191020 | 25 | 9 | 0.0 | 0.0 | 0.00 | 0.08 | 0.08 | 92 | 1012.2 |
| 20260905190519 | 25 | 9 | 0.0 | 0.0 | 0.00 | 0.08 | 0.08 | 92 | 1012.3 |
| 20260905190019 | 25 | 9 | 0.0 | 0.0 | 0.00 | 0.08 | 0.08 | 91 | 1012.3 |
| 20260905185518 | 25 | 9 | 0.0 | 1.6 | 0.03 | 0.08 | 0.08 | 91 | 1012.3 |
| 20260905185018 | 25 | 10 | 0.0 | 1.6 | 0.05 | 0.08 | 0.08 | 91 | 1012.3 |
| 20260905184527 | 26 | 9 | 0.0 | 0.0 | 0.08 | 0.08 | 0.08 | 91 | 1012.4 |
| 20260905184017 | 26 | 9 | 0.0 | 0.0 | 0.08 | 0.08 | 0.08 | 90 | 1012.4 |
| 20260905183518 | 26 | 9 | 0.0 | 0.0 | 0.08 | 0.08 | 0.08 | 90 | 1012.2 |
| 20260905183017 | 26 | 9 | 0.0 | 0.0 | 0.08 | 0.08 | 0.08 | 90 | 1012.2 |
| 20260905182515 | 26 | 9 | 0.0 | 0.0 | 0.08 | 0.08 | 0.08 | 89 | 1012.4 |
| 20260905182015 | 26 | 9 | 0.0 | 1.6 | 0.08 | 0.08 | 0.08 | 88 | 1012.6 |
| 20260905181517 | 27 | 10 | 0.0 | 1.6 | 0.08 | 0.08 | 0.08 | 86 | 1012.5 |
| 20260905181014 | 28 | 10 | 0.0 | 3.2 | 0.08 | 0.08 | 0.08 | 84 | 1012.4 |
| 20260905180518 | 28 | 10 | 0.0 | 3.2 | 0.08 | 0.08 | 0.08 | 81 | 1012.4 |
| 20260905180014 | 29 | 11 | 0.0 | 3.2 | 0.08 | 0.08 | 0.08 | 78 | 1012.6 |
| 20260905175516 | 31 | 43 | 0.0 | 12.9 | 0.05 | 0.05 | 0.05 | 75 | 1012.8 |
| 20260905175014 | 32 | 286 | 1.6 | 16.1 | 0.03 | 0.03 | 0.03 | 69 | 1012.6 |
| 20260905174513 | 33 | 339 | 1.6 | 19.3 | 0.00 | 0.00 | 0.00 | 65 | 1012.5 |
| 20260905174013 | 33 | 318 | 3.2 | 16.1 | 0.00 | 0.00 | 0.00 | 61 | 1012.6 |
| 20260905173513 | 34 | 349 | 1.6 | 14.5 | 0.00 | 0.00 | 0.00 | 59 | 1012.6 |
| 20260905173012 | 35 | 175 | 3.2 | 14.5 | 0.00 | 0.00 | 0.00 | 60 | 1012.7 |
| 20260905172513 | 35 | 355 | 1.6 | 6.4 | 0.00 | 0.00 | 0.00 | 59 | 1012.6 |
| 20260905172014 | 35 | 94 | 1.6 | 6.4 | 0.00 | 0.00 | 0.00 | 59 | 1012.4 |
| 20260905171511 | 35 | 79 | 1.6 | 6.4 | 0.00 | 0.00 | 0.00 | 63 | 1012.3 |
| 20260905171009 | 34 | 82 | 0.0 | 11.3 | 0.00 | 0.00 | 0.00 | 61 | 1012.4 |
| 20260905170609 | 34 | 93 | 1.6 | 11.3 | 0.00 | 0.00 | 0.00 | 61 | 1012.6 |
| 20260905170009 | 34 | 51 | 0.0 | 6.4 | 0.00 | 0.00 | 0.00 | 64 | 1012.6 |
| 20260905165506 | 34 | 21 | 1.6 | 6.4 | 0.00 | 0.00 | 0.00 | 66 | 1012.8 |
| 20260905165007 | 33 | 150 | 0.0 | 4.8 | 0.00 | 0.00 | 0.00 | 65 | 1013.1 |
| 20260905164507 | 33 | 160 | 0.0 | 4.8 | 0.00 | 0.00 | 0.00 | 65 | 1013.2 |
| 20260905164003 | 33 | 332 | 0.0 | 4.8 | 0.00 | 0.00 | 0.00 | 67 | 1013.1 |
| 20260905163502 | 33 | 350 | 1.6 | 6.4 | 0.00 | 0.00 | 0.00 | 66 | 1013.1 |
| 20260905163002 | 33 | 355 | 1.6 | 6.4 | 0.00 | 0.00 | 0.00 | 66 | 1013.2 |
| 20260905162604 | 33 | 342 | 0.0 | 4.8 | 0.00 | 0.00 | 0.00 | 66 | 1013.3 |
| 20260905162059 | 32 | 71 | 0.0 | 4.8 | 0.00 | 0.00 | 0.00 | 70 | 1013.3 |
| 20260905161609 | 32 | 92 | 0.0 | 4.8 | 0.00 | 0.00 | 0.00 | 70 | 1013.3 |
| 20260905161058 | 32 | 182 | 0.0 | 1.6 | 0.00 | 0.00 | 0.00 | 70 | 1013.2 |
| 20260905160557 | 32 | 182 | 0.0 | 3.2 | 0.00 | 0.00 | 0.00 | 68 | 1013.2 |
| 20260905160057 | 32 | 182 | 0.0 | 4.8 | 0.00 | 0.00 | 0.00 | 70 | 1013.3 |
| 20260905155556 | 32 | 349 | 0.0 | 4.8 | 0.00 | 0.00 | 0.00 | 70 | 1013.4 |
| 20260905155054 | 32 | 10 | 0.0 | 3.2 | 0.00 | 0.00 | 0.00 | 68 | 1013.4 |
| 20260905154559 | 32 | 230 | 1.6 | 6.4 | 0.00 | 0.00 | 0.00 | 70 | 1013.3 |
| 20260905154050 | 32 | 246 | 0.0 | 6.4 | 0.00 | 0.00 | 0.00 | 72 | 1013.4 |
| 20260905153551 | 31 | 79 | 0.0 | 4.8 | 0.00 | 0.00 | 0.00 | 73 | 1013.4 |
| 20260905153051 | 31 | 83 | 0.0 | 4.8 | 0.00 | 0.00 | 0.00 | 74 | 1013.4 |
| 20260905152547 | 31 | 5 | 0.0 | 3.2 | 0.00 | 0.00 | 0.00 | 73 | 1013.4 |
| 20260905152046 | 31 | 232 | 1.6 | 4.8 | 0.00 | 0.00 | 0.00 | 77 | 1013.4 |
| 20260905151545 | 30 | 205 | 0.0 | 4.8 | 0.00 | 0.00 | 0.00 | 76 | 1013.3 |
| 20260905151044 | 30 | 85 | 0.0 | 4.8 | 0.00 | 0.00 | 0.00 | 77 | 1013.4 |
| 20260905150543 | 30 | 252 | 1.6 | 4.8 | 0.00 | 0.00 | 0.00 | 76 | 1013.5 |
| 20260905150043 | 30 | 201 | 0.0 | 4.8 | 0.00 | 0.00 | 0.00 | 78 | 1013.5 |
| 20260905145542 | 30 | 9 | 0.0 | 3.2 | 0.00 | 0.00 | 0.00 | 76 | 1013.6 |
| 20260905145041 | 30 | 9 | 1.6 | 3.2 | 0.00 | 0.00 | 0.00 | 78 | 1013.6 |
| 20260905144540 | 29 | 97 | 0.0 | 3.2 | 0.00 | 0.00 | 0.00 | 80 | 1013.6 |
| 20260905144038 | 29 | 101 | 0.0 | 1.6 | 0.00 | 0.00 | 0.00 | 80 | 1013.7 |
| 20260905143537 | 28 | 123 | 0.0 | 3.2 | 0.00 | 0.00 | 0.00 | 80 | 1013.7 |
| 20260905143036 | 28 | 138 | 0.0 | 3.2 | 0.00 | 0.00 | 0.00 | 83 | 1013.8 |
| 20260905142534 | 28 | 95 | 0.0 | 4.8 | 0.00 | 0.00 | 0.00 | 84 | 1013.8 |
| 20260905142032 | 27 | 109 | 0.0 | 4.8 | 0.00 | 0.00 | 0.00 | 83 | 1013.8 |
| 20260905141531 | 27 | 109 | 0.0 | 1.6 | 0.00 | 0.00 | 0.00 | 85 | 1013.9 |
| 20260905141029 | 27 | 108 | 0.0 | 3.2 | 0.00 | 0.00 | 0.00 | 85 | 1013.9 |
| 20260905140528 | 27 | 109 | 0.0 | 4.8 | 0.00 | 0.00 | 0.00 | 86 | 1013.9 |
| 20260905140027 | 27 | 152 | 0.0 | 4.8 | 0.00 | 0.00 | 0.00 | 87 | 1013.9 |
| 20260905135526 | 26 | 142 | 0.0 | 3.2 | 0.00 | 0.00 | 0.00 | 86 | 1014.0 |
| 20260905135025 | 26 | 148 | 0.0 | 1.6 | 0.00 | 0.00 | 0.00 | 87 | 1014.0 |
| 20260905134524 | 26 | 219 | 0.0 | 1.6 | 0.00 | 0.00 | 0.00 | 88 | 1014.1 |
| 20260905134022 | 26 | 219 | 0.0 | 1.6 | 0.00 | 0.00 | 0.00 | 89 | 1014.1 |
| 20260905133520 | 26 | 219 | 0.0 | 1.6 | 0.00 | 0.00 | 0.00 | 89 | 1014.2 |
| 20260905133031 | 25 | 219 | 0.0 | 3.2 | 0.00 | 0.00 | 0.00 | 89 | 1014.3 |
| 20260905132520 | 25 | 178 | 0.0 | 3.2 | 0.00 | 0.00 | 0.00 | 90 | 1014.3 |
| 20260905132020 | 25 | 14 | 0.0 | 3.2 | 0.00 | 0.00 | 0.00 | 90 | 1014.4 |
| 20260905131525 | 25 | 209 | 0.0 | 3.2 | 0.00 | 0.00 | 0.00 | 91 | 1014.4 |
| 20260905131021 | 25 | 170 | 0.0 | 0.0 | 0.00 | 0.00 | 0.00 | 92 | 1014.5 |
| 20260905130519 | 24 | 170 | 0.0 | 1.6 | 0.00 | 0.00 | 0.00 | 93 | 1014.5 |
| 20260905130117 | 24 | 170 | 0.0 | 1.6 | 0.00 | 0.00 | 0.00 | 93 | 1014.4 |
| 20260905125519 | 23 | 171 | 0.0 | 0.0 | 0.00 | 0.00 | 0.00 | 93 | 1014.4 |
| 20260905125014 | 23 | 171 | 0.0 | 3.2 | 0.00 | 0.00 | 0.00 | 93 | 1014.5 |
| 20260905124513 | 23 | 171 | 0.0 | 1.6 | 0.00 | 0.00 | 0.00 | 93 | 1014.5 |
| 20260905124012 | 23 | 103 | 0.0 | 3.2 | 0.00 | 0.00 | 0.00 | 93 | 1014.5 |
| 20260905123511 | 23 | 102 | 0.0 | 3.2 | 0.00 | 0.00 | 0.00 | 93 | 1014.5 |
| 20260905123011 | 23 | 80 | 0.0 | 0.0 | 0.00 | 0.00 | 0.00 | 94 | 1014.4 |
| 20260905122510 | 23 | 79 | 0.0 | 0.0 | 0.00 | 0.00 | 0.00 | 94 | 1014.4 |
| 20260905122010 | 23 | 79 | 0.0 | 0.0 | 0.00 | 0.00 | 0.00 | 94 | 1014.4 |
| 20260905121509 | 22 | 79 | 0.0 | 0.0 | 0.00 | 0.00 | 0.00 | 94 | 1014.4 |
| 20260905121011 | 22 | 79 | 0.0 | 0.0 | 0.00 | 0.00 | 0.00 | 94 | 1014.3 |
| 20260905120510 | 22 | 79 | 0.0 | 0.0 | 0.00 | 0.00 | 0.00 | 94 | 1014.3 |
| 20260905120007 | 22 | 79 | 0.0 | 0.0 | 0.00 | 0.00 | 0.00 | 94 | 1014.2 |
| 20260905115506 | 22 | 79 | 0.0 | 0.0 | 0.00 | 0.00 | 0.00 | 94 | 1014.2 |
| 20260905115009 | 22 | 79 | 0.0 | 0.0 | 0.00 | 0.00 | 0.00 | 94 | 1014.0 |
| 20260905114504 | 22 | 79 | 0.0 | 0.0 | 0.00 | 0.00 | 0.00 | 94 | 1013.9 |
| 20260905114004 | 22 | 79 | 0.0 | 0.0 | 0.00 | 0.00 | 0.00 | 93 | 1013.8 |
| 20260905113502 | 22 | 79 | 0.0 | 0.0 | 0.00 | 0.00 | 0.00 | 93 | 1013.7 |
| 20260905113001 | 22 | 79 | 0.0 | 0.0 | 0.00 | 0.00 | 0.00 | 93 | 1013.6 |
| 20260905112502 | 22 | 79 | 0.0 | 0.0 | 0.00 | 0.00 | 0.00 | 93 | 1013.6 |
| 20260905112000 | 22 | 79 | 0.0 | 0.0 | 0.00 | 0.00 | 0.00 | 93 | 1013.5 |
| 20260905111559 | 22 | 79 | 0.0 | 0.0 | 0.00 | 0.00 | 0.00 | 93 | 1013.5 |
| 20260905111100 | 22 | 79 | 0.0 | 0.0 | 0.00 | 0.00 | 0.00 | 93 | 1013.3 |
| 20260905110600 | 22 | 79 | 0.0 | 0.0 | 0.00 | 0.00 | 0.00 | 93 | 1013.4 |
| 20260905110100 | 22 | 79 | 0.0 | 0.0 | 0.00 | 0.00 | 0.00 | 93 | 1013.3 |
| 20260905105559 | 22 | 79 | 0.0 | 0.0 | 0.00 | 0.00 | 0.00 | 93 | 1013.3 |
| 20260905105103 | 22 | 79 | 0.0 | 0.0 | 0.00 | 0.00 | 0.00 | 93 | 1013.2 |
| 20260905104558 | 22 | 79 | 0.0 | 0.0 | 0.00 | 0.00 | 0.00 | 93 | 1013.2 |
| 20260905104059 | 22 | 79 | 0.0 | 0.0 | 0.00 | 0.00 | 0.00 | 93 | 1013.2 |
| 20260905103558 | 22 | 79 | 0.0 | 0.0 | 0.00 | 0.00 | 0.00 | 93 | 1013.1 |
| 20260905103105 | 22 | 79 | 0.0 | 0.0 | 0.00 | 0.00 | 0.00 | 93 | 1013.0 |
| 20260905102557 | 22 | 79 | 0.0 | 0.0 | 0.00 | 0.00 | 0.00 | 93 | 1012.9 |
| 20260905102057 | 22 | 79 | 0.0 | 0.0 | 0.00 | 0.00 | 0.00 | 93 | 1013.0 |